This demonstration page uses our WeatherBlox Daily Observations layout. Learn more.

Left ArrowRight Arrow

Hourly Observations for June 11, 2018

Temp ( °F °C ) Dew Point ( °F °C ) Humidity (%) Winds ( mph kmh ) Pressure ( in mb ) Visibility ( mi km ) Precip ( " mm )
12:53 am 00:53 Clear 82 27.8 67 19.4 60 60 SSE 16 26 29.56 1001 10 16 0.00 0.00
1:53 am 01:53 Clear 81 27.2 69 20.6 67 67 S 13 20 29.55 1001 10 16 0.00 0.00
2:53 am 02:53 Clear 79 26.1 69 20.6 72 72 S 14 22 29.54 1000 10 16 0.00 0.00
3:53 am 03:53 Clear 78 25.6 68 20 71 71 S 13 20 29.53 1000 10 16 0.00 0.00
4:53 am 04:53 Clear 77 25 68 20 74 74 S 14 22 29.54 1000 10 16 0.00 0.00
5:53 am 05:53 Clear 76 24.4 67 19.4 74 74 S 13 20 29.54 1001 10 16 0.00 0.00
6:53 am 06:53 Sunny 76 24.4 67 19.4 74 74 SSW 8 13 29.60 1003 10 16 0.00 0.00
7:53 am 07:53 Sunny 77 25 69 20.6 77 77 S 3 6 29.62 1003 10 16 0.00 0.00
8:53 am 08:53 Sunny 79 26.1 68 20 69 69 S 9 15 29.63 1003 10 16 0.00 0.00
9:53 am 09:53 Sunny 81 27.2 68 20 65 65 SSW 7 11 29.64 1004 10 16 0.00 0.00
10:53 am 10:53 Sunny 84 28.9 66 18.9 55 55 WSW 7 11 29.65 1004 10 16 0.00 0.00
11:53 am 11:53 Mostly Sunny 81 27.2 66 18.9 61 61 NW 17 28 29.68 1005 10 16 0.00 0.00
12:53 pm 12:53 Sunny 81 27.2 66 18.9 61 61 NW 14 22 29.70 1006 10 16 0.00 0.00
1:53 pm 13:53 Sunny 84 28.9 67 19.4 57 57 WNW 12 19 29.70 1006 10 16 0.00 0.00
2:53 pm 14:53 Sunny 84 28.9 66 18.9 55 55 NW 8 13 29.71 1006 10 16 0.00 0.00
3:53 pm 15:53 Sunny 85 29.4 68 20 57 57 NNW 16 26 29.73 1007 10 16 0.00 0.00
4:53 pm 16:53 Sunny 83 28.3 67 19.4 59 59 NNW 17 28 29.74 1007 10 16 0.00 0.00
5:53 pm 17:53 Sunny 81 27.2 66 18.9 61 61 NNW 17 28 29.75 1007 10 16 0.00 0.00
6:53 pm 18:53 Sunny 79 26.1 64 17.8 60 60 NNW 18 30 29.74 1007 10 16 0.00 0.00
7:53 pm 19:53 Sunny 76 24.4 63 17.2 64 64 N 21 33 29.76 1008 10 16 0.00 0.00
8:53 pm 20:53 Sunny 72 22.2 64 17.8 76 76 N 12 19 29.79 1009 10 16 0.00 0.00
9:53 pm 21:53 Clear 71 21.7 64 17.8 79 79 N 7 11 29.81 1010 10 16 0.00 0.00
10:53 pm 22:53 Clear 69 20.6 64 17.8 84 84 N 7 11 29.82 1010 10 16 0.00 0.00
11:53 pm 23:53 Clear 67 19.4 63 17.2 87 87 N 3 6 29.85 1011 10 16 0.00 0.00

Powered by AerisWeather